STARLINK-4561 (53563 NORAD) Tracking and Keplerian Element Data

This shows tracking and keplerian element data for the satellite.

Feedback or suggestion? Click here.




ElementValue
Catalog53563
NameSTARLINK-4561
Epoch Orbit130
Epoch Day324.91667824
Epoch Year2022
RAAN62.7695
Inclination53.2147
Eccentricity0.0001455
Argument of Perigee54.5591
Mean Anonmoly254.8104
Mean Motion15.08849641
Decay Rate-0.00062894
L11 53563U 22101AN 22324.91667824 -.00062894 00000+0 -39674-2 0 9995
L22 53563 53.2147 62.7695 0001455 54.5591 254.8104 15.08849641 1309



Live tracking and technical data element details for STARLINK-4561 (NORAD 53563). STARLINK-4561 can be tracked NOW for your location showing map with azimuth and elevation plus other details from your city location.







IsCatalogInMostPopularTable: catalog: 53563, numindb: 2
Update: records affected: 1



GetName: 53563 STARLINK-4561

Hit Count: updated at: Thu, 08 Dec 2022 08:49:26 GMT